FW2861 North Weymouth MA US current weather conditions

sailwx.info

Wind from 217 at 0 knots gusting 3

Air temperature 21.7° C
Dewpoint 20.3° C

Last reported at 2020-Aug-10 08:07 UTC.
Time now 2020-Aug-10 09:02 UTC

Location: N 42°15' W 070°57'.
View on Google Maps.

See reports from other nearby stations

  
Tides and Currents Weather Stations Pressure Air Temp Water Temp Dewpoint Dewpoint Depression Visibility Wind Speed Wind Dir Waves Ship Positions
date/time (UTC)wind fromknots sea level pressurealtimeterstation pressurevisibilityair tempwater tempwave heightnotes
2020-Aug-10 08:07 217 0 gusting 3 21.7
2020-Aug-10 08:02 231 1 gusting 2 21.7
2020-Aug-10 07:56 220 0 gusting 2 21.7
2020-Aug-10 07:51 236 21.7
2020-Aug-10 07:46 200 0 gusting 3 21.7
2020-Aug-10 07:41 185 1 gusting 2 21.7
2020-Aug-10 07:36 250 0 gusting 3 21.7
2020-Aug-10 07:31 256 0 gusting 3 22.2
2020-Aug-10 07:25 237 1 gusting 3 22.2
2020-Aug-10 07:20 235 0 gusting 3 22.2
2020-Aug-10 07:15 259 1 gusting 6 22.2
2020-Aug-10 07:10 233 1 gusting 6 22.2
2020-Aug-10 07:05 244 0 gusting 3 22.2
2020-Aug-10 07:00 233 0 gusting 3 22.2
2020-Aug-10 06:54 211 2 gusting 6 22.2
2020-Aug-10 06:49 233 0 gusting 6 22.2
2020-Aug-10 06:44 254 3 gusting 5 22.2
2020-Aug-10 06:39 256 1 gusting 6 22.2
2020-Aug-10 06:34 238 1 gusting 6 22.2
2020-Aug-10 06:29 228 1 gusting 6 22.2
2020-Aug-10 06:24 232 2 gusting 6 22.2
2020-Aug-10 06:18 241 22.2
2020-Aug-10 06:13 219 0 gusting 5 22.2
2020-Aug-10 06:08 255 2 gusting 3 22.2
2020-Aug-10 06:03 210 1 gusting 5 22.2
2020-Aug-10 05:58 236 1 gusting 5 22.2
2020-Aug-10 05:53 277 1 gusting 6 22.2
2020-Aug-10 05:47 262 1 gusting 6 22.2
2020-Aug-10 05:42 240 22.2
2020-Aug-10 05:37 200 0 gusting 6 22.8
2020-Aug-10 05:32 270 2 gusting 6 22.8
2020-Aug-10 05:27 233 0 gusting 6 22.8
2020-Aug-10 05:22 236 0 gusting 6 22.8
2020-Aug-10 05:16 212 1 gusting 6 22.8
2020-Aug-10 05:11 236 1 gusting 3 22.8
2020-Aug-10 05:06 184 1 gusting 3 22.8
2020-Aug-10 05:01 229 0 gusting 5 22.8
2020-Aug-10 04:56 252 2 gusting 5 22.8
2020-Aug-10 04:51 256 2 gusting 3 22.8
2020-Aug-10 04:46 213 1 gusting 6 22.8
2020-Aug-10 04:40 254 3 gusting 6 22.8
2020-Aug-10 04:35 243 0 gusting 5 22.8
2020-Aug-10 04:30 233 1 gusting 6 23.3
2020-Aug-10 04:25 232 1 gusting 6 23.3
2020-Aug-10 04:20 222 1 gusting 6 23.3
2020-Aug-10 04:15 230 2 gusting 7 23.3
2020-Aug-10 04:09 194 1 gusting 7 23.3
2020-Aug-10 04:04 243 0 gusting 6 23.3
2020-Aug-10 03:59 234 4 gusting 6 23.3
2020-Aug-10 03:54 225 0 gusting 6 23.3
2020-Aug-10 03:49 214 1 gusting 6 23.3
2020-Aug-10 03:44 196 2 gusting 5 23.3
2020-Aug-10 03:39 183 1 gusting 5 23.3
2020-Aug-10 03:34 236 3 gusting 5 23.3
2020-Aug-10 03:28 246 0 gusting 5 23.3
2020-Aug-10 03:23 236 3 gusting 6 23.3
2020-Aug-10 03:18 258 3 gusting 6 23.3
2020-Aug-10 03:13 238 0 gusting 5 23.3
2020-Aug-10 03:08 232 1 gusting 5 23.3
2020-Aug-10 03:03 229 1 gusting 6 23.9
2020-Aug-10 02:57 262 1 gusting 6 23.9
2020-Aug-10 02:52 233 2 gusting 9 23.9
2020-Aug-10 02:47 240 3 gusting 9 23.9
2020-Aug-10 02:42 207 2 gusting 7 23.9
2020-Aug-10 02:37 245 1 gusting 6 23.9
2020-Aug-10 02:32 277 3 gusting 8 23.9
2020-Aug-10 02:27 238 1 gusting 8 23.9
2020-Aug-10 02:22 278 2 gusting 7 23.9
2020-Aug-10 02:16 238 4 gusting 6 23.9
2020-Aug-10 02:11 235 2 gusting 8 24.4
2020-Aug-10 02:06 184 5 gusting 8 24.4
2020-Aug-10 02:01 264 2 gusting 8 24.4
2020-Aug-10 01:56 236 24.4
2020-Aug-10 01:51 231 1 gusting 6 24.4
2020-Aug-10 01:45 240 1 gusting 6 24.4
2020-Aug-10 01:40 233 0 gusting 9 24.4
2020-Aug-10 01:35 195 2 gusting 8 24.4
2020-Aug-10 01:30 209 2 gusting 7 24.4
2020-Aug-10 01:25 220 3 gusting 8 24.4
2020-Aug-10 01:20 230 2 gusting 6 25.0
2020-Aug-10 01:14 239 1 gusting 6 25.0
2020-Aug-10 01:09 207 1 gusting 7 25.0
2020-Aug-10 01:04 243 4 gusting 7 25.0
2020-Aug-10 00:59 260 2 gusting 6 25.0
2020-Aug-10 00:54 235 1 gusting 7 25.6
2020-Aug-10 00:49 252 3 gusting 7 25.6
2020-Aug-10 00:44 232 0 gusting 7 25.6
2020-Aug-10 00:38 204 2 gusting 7 25.6
2020-Aug-10 00:33 220 3 gusting 6 25.6
2020-Aug-10 00:28 236 1 gusting 7 25.6
2020-Aug-10 00:23 204 1 gusting 8 25.6
2020-Aug-10 00:18 230 25.6
2020-Aug-10 00:13 275 2 gusting 7 26.1
2020-Aug-10 00:08 260 3 gusting 8 26.1
2020-Aug-10 00:03 262 3 gusting 9 26.1
2020-Aug-09 23:57 218 1 gusting 9 26.1
2020-Aug-09 23:52 255 1 gusting 8 26.1
2020-Aug-09 23:47 225 0 gusting 7 26.7
2020-Aug-09 23:42 208 2 gusting 11 26.7
2020-Aug-09 23:37 249 6 gusting 11 26.7
2020-Aug-09 23:32 218 3 gusting 7 26.7
2020-Aug-09 23:27 176 3 gusting 7 26.7
2020-Aug-09 23:21 263 5 gusting 13 27.2
2020-Aug-09 23:16 280 2 gusting 13 27.2
2020-Aug-09 23:11 197 4 gusting 11 27.2
2020-Aug-09 23:06 202 5 gusting 8 27.8
2020-Aug-09 23:01 224 0 gusting 9 27.8
2020-Aug-09 22:56 254 6 gusting 9 27.8
2020-Aug-09 22:51 224 3 gusting 12 27.8
2020-Aug-09 22:45 276 6 gusting 12 27.8
2020-Aug-09 22:40 191 4 gusting 9 27.8
2020-Aug-09 22:35 249 4 gusting 8 28.3
2020-Aug-09 22:30 262 2 gusting 6 28.9
2020-Aug-09 22:25 222 4 gusting 8 28.3
2020-Aug-09 22:20 271 3 gusting 12 28.3
2020-Aug-09 22:15 249 8 gusting 12 28.9
2020-Aug-09 22:10 242 3 gusting 12 28.9
2020-Aug-09 22:04 213 1 gusting 12 28.9
2020-Aug-09 21:59 243 1 gusting 11 29.4
2020-Aug-09 21:54 225 3 gusting 9 29.4
2020-Aug-09 21:49 224 3 gusting 11 30.0
2020-Aug-09 21:44 206 6 gusting 11 30.0
2020-Aug-09 21:39 248 2 gusting 9 30.0
2020-Aug-09 21:34 186 1 gusting 8 30.0
2020-Aug-09 21:28 210 1 gusting 11 29.4
2020-Aug-09 21:23 101 1 gusting 11 29.4
2020-Aug-09 21:18 155 0 gusting 7 29.4
2020-Aug-09 21:13 101 1 gusting 9 29.4
2020-Aug-09 21:08 230 1 gusting 13 29.4
2020-Aug-09 21:03 245 6 gusting 13 30.0
2020-Aug-09 20:58 270 2 gusting 13 30.6
2020-Aug-09 20:52 245 0 gusting 8 31.1
2020-Aug-09 20:47 238 2 gusting 9 31.1
2020-Aug-09 20:42 257 3 gusting 9 31.1
2020-Aug-09 20:37 197 3 gusting 9 31.1
2020-Aug-09 20:32 260 4 gusting 13 31.1
2020-Aug-09 20:26 069 2 gusting 13 30.6
2020-Aug-09 20:21 276 6 gusting 12 31.1
2020-Aug-09 20:16 287 3 gusting 9 31.1
2020-Aug-09 20:10 260 4 gusting 9 31.1
2020-Aug-09 20:05 258 5 gusting 11 31.1
2020-Aug-09 20:00 236 3 gusting 12 31.1
2020-Aug-09 19:55 187 4 gusting 12 31.1
2020-Aug-09 19:50 211 2 gusting 12 31.1
2020-Aug-09 19:45 206 5 gusting 11 31.7
2020-Aug-09 19:39 265 5 gusting 11 31.7
2020-Aug-09 19:34 236 1 gusting 9 32.2
2020-Aug-09 19:29 213 5 gusting 9 32.8
2020-Aug-09 19:23 232 2 gusting 12 32.2
2020-Aug-09 19:18 220 6 gusting 11 32.8
2020-Aug-09 19:13 279 3 gusting 8 31.7
2020-Aug-09 19:08 255 1 gusting 8 31.1
2020-Aug-09 19:03 238 0 gusting 9 31.1
2020-Aug-09 18:58 235 6 gusting 9 31.1
2020-Aug-09 18:52 197 5 gusting 7 31.1
2020-Aug-09 18:47 231 2 gusting 6 31.7
2020-Aug-09 18:42 219 2 gusting 6 31.7
2020-Aug-09 18:37 238 2 gusting 7 30.6
2020-Aug-09 18:32 262 5 gusting 7 31.1
2020-Aug-09 18:26 247 1 gusting 8 32.2
2020-Aug-09 18:21 227 1 gusting 8 31.7
2020-Aug-09 18:16 247 5 gusting 8 32.2
2020-Aug-09 18:11 287 5 gusting 7 32.2
2020-Aug-09 18:06 248 2 gusting 6 32.2
2020-Aug-09 18:01 244 1 gusting 6 31.7
2020-Aug-09 17:56 233 1 gusting 6 31.7
2020-Aug-09 17:50 226 1 gusting 13 32.2
2020-Aug-09 17:45 180 2 gusting 13 31.7
2020-Aug-09 17:40 256 3 gusting 6 31.7
2020-Aug-09 17:35 219 1 gusting 8 32.2
2020-Aug-09 17:30 264 4 gusting 8 32.2
2020-Aug-09 17:25 233 2 gusting 9 32.2
2020-Aug-09 17:19 251 3 gusting 9 32.8
2020-Aug-09 17:14 240 2 gusting 6 32.8
2020-Aug-09 17:09 213 0 gusting 3 32.2
2020-Aug-09 17:04 236 1 gusting 3 31.7
2020-Aug-09 16:59 242 0 gusting 5 31.1
2020-Aug-09 16:54 255 1 gusting 3 31.7
2020-Aug-09 16:48 250 0 gusting 7 31.7
2020-Aug-09 16:43 217 1 gusting 7 31.7
2020-Aug-09 16:38 250 1 gusting 7 32.2
2020-Aug-09 16:33 241 0 gusting 6 31.7
2020-Aug-09 16:28 236 1 gusting 6 31.1
2020-Aug-09 16:23 230 2 gusting 6 31.1
2020-Aug-09 16:17 245 0 gusting 9 31.1
2020-Aug-09 16:12 246 3 gusting 9 30.6
2020-Aug-09 16:07 220 2 gusting 7 31.1
2020-Aug-09 16:02 272 1 gusting 6 31.1
2020-Aug-09 15:57 228 4 gusting 8 31.7
2020-Aug-09 15:51 269 2 gusting 8 31.7
2020-Aug-09 15:46 230 3 gusting 7 31.1
2020-Aug-09 15:41 230 1 gusting 7 30.6
2020-Aug-09 15:36 272 3 gusting 7 30.6
2020-Aug-09 15:31 270 2 gusting 8 30.6
2020-Aug-09 15:26 229 5 gusting 8 30.0
2020-Aug-09 15:21 245 5 gusting 7 30.0
2020-Aug-09 15:15 237 1 gusting 7 30.6
2020-Aug-09 15:10 242 2 gusting 8 30.0
2020-Aug-09 15:05 242 3 gusting 8 30.0
2020-Aug-09 15:00 245 2 gusting 6 30.0
2020-Aug-09 14:55 217 4 gusting 6 30.0
2020-Aug-09 14:50 249 2 gusting 7 29.4
2020-Aug-09 14:45 236 5 gusting 7 29.4
2020-Aug-09 14:39 266 2 gusting 7 28.9
2020-Aug-09 14:34 249 4 gusting 6 29.4
2020-Aug-09 14:29 271 2 gusting 5 29.4
2020-Aug-09 14:23 252 2 gusting 6 29.4
2020-Aug-09 14:18 245 0 gusting 6 28.9
2020-Aug-09 14:13 239 0 gusting 6 28.3
2020-Aug-09 14:08 238 1 gusting 6 28.3
2020-Aug-09 14:03 237 4 gusting 6 28.3
2020-Aug-09 13:58 253 0 gusting 7 27.8
2020-Aug-09 13:53 241 3 gusting 7 27.8
2020-Aug-09 13:48 251 2 gusting 6 27.2
2020-Aug-09 13:42 261 4 gusting 6 27.2
2020-Aug-09 13:37 241 1 gusting 6 27.2
2020-Aug-09 13:32 245 0 gusting 6 26.7
2020-Aug-09 13:27 244 2 gusting 7 26.7
2020-Aug-09 13:22 238 3 gusting 7 26.1
2020-Aug-09 13:17 215 3 gusting 6 26.7
2020-Aug-09 13:11 242 1 gusting 6 26.1
2020-Aug-09 13:06 246 2 gusting 6 26.1
2020-Aug-09 13:01 221 0 gusting 5 26.1
2020-Aug-09 12:55 236 0 gusting 5 26.1
2020-Aug-09 12:50 220 25.6
2020-Aug-09 12:45 239 1 gusting 6 25.6
2020-Aug-09 12:40 251 0 gusting 3 25.6
2020-Aug-09 12:35 229 0 gusting 3 25.6
2020-Aug-09 12:29 235 0 gusting 5 24.4
2020-Aug-09 12:24 240 2 gusting 5 24.4
2020-Aug-09 12:19 245 2 gusting 5 24.4
2020-Aug-09 12:14 215 1 gusting 5 23.9
2020-Aug-09 12:09 238 0 gusting 5 23.3
2020-Aug-09 12:04 247 1 gusting 3 23.3
2020-Aug-09 11:58 205 1 gusting 6 22.8
2020-Aug-09 11:53 237 0 gusting 6 22.2
2020-Aug-09 11:48 243 1 gusting 6 22.2
2020-Aug-09 11:43 248 4 gusting 6 22.2
2020-Aug-09 11:38 246 1 gusting 5 22.2
2020-Aug-09 11:33 245 4 gusting 6 22.2
2020-Aug-09 11:27 237 0 gusting 6 21.7
2020-Aug-09 11:22 253 2 gusting 5 21.7
2020-Aug-09 11:17 224 1 gusting 6 21.1
2020-Aug-09 11:12 247 2 gusting 6 21.1
2020-Aug-09 11:07 257 3 gusting 5 20.6
2020-Aug-09 11:02 225 1 gusting 3 20.6
2020-Aug-09 10:57 231 0 gusting 3 20.6
2020-Aug-09 10:51 203 20.6
2020-Aug-09 10:46 240 1 gusting 5 20.0
2020-Aug-09 10:41 243 1 gusting 6 20.0
2020-Aug-09 10:36 254 3 gusting 6 20.0
2020-Aug-09 10:31 238 0 gusting 5 20.0
2020-Aug-09 10:26 243 1 gusting 5 20.0
2020-Aug-09 10:21 232 19.4
2020-Aug-09 10:16 232 0 gusting 5 19.4
2020-Aug-09 10:10 200 2 gusting 5 19.4
2020-Aug-09 10:05 235 19.4
2020-Aug-09 10:00 233 0 gusting 6 19.4
2020-Aug-09 09:55 240 0 gusting 6 19.4
2020-Aug-09 09:50 233 0 gusting 5 19.4
2020-Aug-09 09:45 226 0 gusting 3 19.4
2020-Aug-09 09:39 240 1 gusting 2 19.4
2020-Aug-09 09:34 223 0 gusting 3 19.4
2020-Aug-09 09:29 245 2 gusting 3 19.4
2020-Aug-09 09:24 234 0 gusting 3 19.4
2020-Aug-09 09:19 244 1 gusting 3 19.4
2020-Aug-09 09:14 226 0 gusting 5 19.4
2020-Aug-09 09:09 258 2 gusting 5 19.4
2020-Aug-09 09:04 238 0 gusting 3 19.4
2020-Aug-09 08:58 224 19.4
2020-Aug-09 08:53 225 1 gusting 5 19.4
2020-Aug-09 08:48 233 1 gusting 3 19.4
2020-Aug-09 08:43 249 0 gusting 2 20.0
2020-Aug-09 08:38 250 0 gusting 2 20.0
2020-Aug-09 08:33 219 0 gusting 3 20.0
2020-Aug-09 08:28 158 0 gusting 3 20.0
2020-Aug-09 08:22 238 20.0
2020-Aug-09 08:17 248 0 gusting 5 20.0
2020-Aug-09 08:12 249 0 gusting 5 20.0
2020-Aug-09 08:07 245 1 gusting 3 20.0
2020-Aug-09 08:02 239 0 gusting 3 20.0
2020-Aug-09 07:57 232 20.0
2020-Aug-09 07:52 244 1 gusting 5 20.0
2020-Aug-09 07:46 224 0 gusting 3 20.0
2020-Aug-09 07:41 259 0 gusting 3 20.0
2020-Aug-09 07:36 217 1 gusting 5 20.6
2020-Aug-09 07:31 234 0 gusting 5 20.6
2020-Aug-09 07:26 162 2 gusting 6 20.6
2020-Aug-09 07:21 224 1 gusting 6 20.6
2020-Aug-09 07:16 249 0 gusting 6 20.6
2020-Aug-09 07:11 219 0 gusting 6 20.6
2020-Aug-09 07:05 248 1 gusting 6 20.6
2020-Aug-09 07:00 239 0 gusting 5 20.6
2020-Aug-09 06:55 217 1 gusting 6 20.6
2020-Aug-09 06:50 239 4 gusting 6 20.6
2020-Aug-09 06:45 244 1 gusting 5 20.6
2020-Aug-09 06:40 218 1 gusting 5 20.6
2020-Aug-09 06:34 238 1 gusting 6 20.6
2020-Aug-09 06:29 248 2 gusting 6 20.6
2020-Aug-09 06:24 237 1 gusting 6 20.6
2020-Aug-09 06:19 249 2 gusting 6 20.6
2020-Aug-09 06:14 242 4 gusting 5 20.6
2020-Aug-09 06:09 244 1 gusting 5 20.6
2020-Aug-09 06:04 245 2 gusting 5 20.6
2020-Aug-09 05:59 253 2 gusting 5 20.6
2020-Aug-09 05:53 233 1 gusting 5 20.6
2020-Aug-09 05:48 213 0 gusting 6 20.6
2020-Aug-09 05:43 232 0 gusting 6 21.1
2020-Aug-09 05:38 251 1 gusting 5 21.1
2020-Aug-09 05:33 220 0 gusting 7 21.1
2020-Aug-09 05:28 255 0 gusting 7 21.1
2020-Aug-09 05:22 248 2 gusting 3 21.1
2020-Aug-09 05:17 238 0 gusting 6 21.1
2020-Aug-09 05:12 234 21.1
2020-Aug-09 05:07 257 3 gusting 5 21.1
2020-Aug-09 05:02 231 1 gusting 6 21.1
2020-Aug-09 04:57 261 2 gusting 6 21.1
2020-Aug-09 04:51 238 1 gusting 5 21.1
2020-Aug-09 04:47 238 1 gusting 5 21.1
2020-Aug-09 04:41 239 0 gusting 6 21.1
2020-Aug-09 04:36 268 3 gusting 6 21.1
2020-Aug-09 04:31 234 1 gusting 6 21.7
2020-Aug-09 04:26 275 5 gusting 6 21.7
2020-Aug-09 04:21 263 0 gusting 6 21.7
2020-Aug-09 04:15 238 2 gusting 6 21.7
2020-Aug-09 04:10 246 0 gusting 6 21.7
2020-Aug-09 04:05 199 0 gusting 6 21.7
2020-Aug-09 04:00 235 0 gusting 6 21.7
2020-Aug-09 03:55 207 2 gusting 6 21.7
2020-Aug-09 03:50 228 0 gusting 5 21.7
2020-Aug-09 03:45 240 3 gusting 5 21.7
2020-Aug-09 03:39 251 3 gusting 5 21.7
2020-Aug-09 03:34 232 0 gusting 5 21.7
2020-Aug-09 03:29 231 1 gusting 6 21.7
2020-Aug-09 03:24 240 1 gusting 6 21.7
2020-Aug-09 03:19 242 1 gusting 5 21.7
2020-Aug-09 03:14 236 1 gusting 11 21.7
2020-Aug-09 03:09 226 1 gusting 11 22.2
2020-Aug-09 03:03 254 2 gusting 6 22.2
2020-Aug-09 02:58 257 3 gusting 6 22.2
2020-Aug-09 02:53 251 1 gusting 6 22.2
2020-Aug-09 02:48 243 1 gusting 6 22.2
2020-Aug-09 02:43 238 0 gusting 7 22.2
2020-Aug-09 02:38 237 0 gusting 7 22.2
2020-Aug-09 02:33 217 1 gusting 6 22.2
2020-Aug-09 02:28 226 1 gusting 7 22.2
2020-Aug-09 02:22 230 1 gusting 7 22.2
2020-Aug-09 02:17 243 1 gusting 5 22.2
2020-Aug-09 02:12 245 0 gusting 5 22.2
2020-Aug-09 02:07 228 1 gusting 5 22.2
2020-Aug-09 02:02 217 1 gusting 5 22.2
2020-Aug-09 01:56 195 2 gusting 5 22.2
2020-Aug-09 01:51 211 1 gusting 5 22.2
2020-Aug-09 01:46 207 3 gusting 6 22.8
2020-Aug-09 01:41 231 22.8
2020-Aug-09 01:35 254 1 gusting 3 22.8
2020-Aug-09 01:30 230 22.8
2020-Aug-09 01:25 237 22.8
2020-Aug-09 01:20 218 0 gusting 2 22.8
2020-Aug-09 01:15 220 1 gusting 2 22.8
2020-Aug-09 01:09 180 0 gusting 2 22.8
2020-Aug-09 01:04 235 22.8
2020-Aug-09 00:59 172 1 gusting 2 22.8
2020-Aug-09 00:54 206 0 gusting 3 22.8
2020-Aug-09 00:49 188 1 gusting 3 23.3
2020-Aug-09 00:44 197 23.3
2020-Aug-09 00:39 210 0 gusting 3 23.3
2020-Aug-09 00:33 209 23.3
2020-Aug-09 00:28 210 0 gusting 2 23.3
2020-Aug-09 00:23 217 0 gusting 2 23.9
2020-Aug-09 00:18 188 1 gusting 2 23.9
2020-Aug-09 00:13 198 0 gusting 3 23.9
2020-Aug-09 00:08 206 0 gusting 5 23.9
2020-Aug-09 00:02 224 24.4
2020-Aug-08 23:57 217 0 gusting 3 24.4
2020-Aug-08 23:52 247 1 gusting 3 24.4
2020-Aug-08 23:47 197 1 gusting 2 25.0
2020-Aug-08 23:42 217 0 gusting 5 25.0
2020-Aug-08 23:37 211 2 gusting 5 25.0
2020-Aug-08 23:31 220 25.0
2020-Aug-08 23:26 197 0 gusting 5 25.6
2020-Aug-08 23:21 216 0 gusting 5 25.6
2020-Aug-08 23:16 140 3 gusting 5 25.6
2020-Aug-08 23:11 185 0 gusting 2 25.6
2020-Aug-08 23:06 208 26.1
2020-Aug-08 23:01 156 0 gusting 6 26.1
2020-Aug-08 22:55 199 0 gusting 6 26.1
2020-Aug-08 22:50 206 0 gusting 5 26.1
2020-Aug-08 22:45 218 0 gusting 5 26.1
2020-Aug-08 22:40 135 2 gusting 5 26.7
2020-Aug-08 22:29 311 1 gusting 6 26.7
2020-Aug-08 22:24 193 1 gusting 6 26.7
2020-Aug-08 22:19 066 5 gusting 6 26.7
2020-Aug-08 22:14 166 2 gusting 6 26.7
2020-Aug-08 22:09 220 1 gusting 6 26.7
2020-Aug-08 22:04 163 1 gusting 6 26.7
2020-Aug-08 21:58 105 2 gusting 6 27.2
2020-Aug-08 21:53 185 0 gusting 6 27.2
2020-Aug-08 21:48 190 2 gusting 6 27.2
2020-Aug-08 21:43 073 3 gusting 6 27.2
2020-Aug-08 21:38 245 2 gusting 6 27.2
2020-Aug-08 21:32 191 4 gusting 6 27.2
2020-Aug-08 21:27 202 3 gusting 6 27.2
2020-Aug-08 21:22 122 2 gusting 6 27.8
2020-Aug-08 21:17 247 4 gusting 6 27.8
2020-Aug-08 21:12 219 1 gusting 5 27.8
2020-Aug-08 21:07 202 1 gusting 6 27.8
2020-Aug-08 21:02 281 0 gusting 6 27.8
2020-Aug-08 20:56 056 4 gusting 6 28.3
2020-Aug-08 20:51 022 1 gusting 5 27.8
2020-Aug-08 20:46 239 0 gusting 5 28.3
2020-Aug-08 20:41 298 1 gusting 5 28.3
2020-Aug-08 20:36 221 1 gusting 3 28.3
2020-Aug-08 20:30 249 28.3
2020-Aug-08 20:25 194 1 gusting 5 28.3
2020-Aug-08 20:20 209 2 gusting 3 28.3
2020-Aug-08 20:15 154 3 gusting 5 28.3
2020-Aug-08 20:10 240 0 gusting 8 27.8
2020-Aug-08 20:05 124 3 gusting 8 27.8
2020-Aug-08 20:00 351 1 gusting 6 27.8
2020-Aug-08 19:55 001 3 gusting 6 27.8
2020-Aug-08 19:49 309 1 gusting 5 27.8
2020-Aug-08 19:44 322 1 gusting 5 27.8
2020-Aug-08 19:39 205 1 gusting 5 27.8
2020-Aug-08 19:34 203 27.2
2020-Aug-08 19:29 146 0 gusting 5 27.2
2020-Aug-08 19:24 046 1 gusting 6 27.2
2020-Aug-08 19:18 262 4 gusting 6 27.2
2020-Aug-08 19:13 273 0 gusting 6 26.7
2020-Aug-08 19:08 046 1 gusting 6 26.7
2020-Aug-08 19:03 338 0 gusting 6 26.7
2020-Aug-08 18:58 247 1 gusting 7 26.1
2020-Aug-08 18:53 013 3 gusting 7 26.1
2020-Aug-08 18:47 139 2 gusting 7 26.1
2020-Aug-08 18:42 207 0 gusting 7 26.1
2020-Aug-08 18:37 199 2 gusting 6 26.1
2020-Aug-08 18:32 027 3 gusting 6 26.1
2020-Aug-08 18:27 324 1 gusting 7 26.1
2020-Aug-08 18:22 249 1 gusting 7 25.6
2020-Aug-08 18:17 027 4 gusting 7 25.6
2020-Aug-08 18:12 053 2 gusting 6 25.6
2020-Aug-08 18:06 223 1 gusting 7 25.0
2020-Aug-08 18:01 344 4 gusting 7 24.4
2020-Aug-08 17:56 023 2 gusting 7 23.9
2020-Aug-08 17:51 349 1 gusting 7 23.9
2020-Aug-08 17:46 327 1 gusting 7 24.4
2020-Aug-08 17:41 014 3 gusting 7 24.4
2020-Aug-08 17:36 045 4 gusting 7 24.4
2020-Aug-08 17:30 324 4 gusting 7 25.0
2020-Aug-08 17:25 355 3 gusting 6 25.6
2020-Aug-08 17:20 009 2 gusting 6 25.6
2020-Aug-08 17:15 283 3 gusting 6 25.6
2020-Aug-08 17:10 019 2 gusting 6 25.0
2020-Aug-08 17:05 051 2 gusting 5 26.1
2020-Aug-08 16:59 309 2 gusting 5 26.7
2020-Aug-08 16:54 205 1 gusting 3 26.7
2020-Aug-08 16:49 223 1 gusting 3 26.1
2020-Aug-08 16:44 208 1 gusting 6 26.1
2020-Aug-08 16:39 200 2 gusting 6 25.6
2020-Aug-08 16:34 240 1 gusting 7 24.4
2020-Aug-08 16:28 332 1 gusting 7 23.9
2020-Aug-08 16:23 278 2 gusting 6 23.9
2020-Aug-08 16:18 349 5 gusting 6 23.9
2020-Aug-08 16:13 120 3 gusting 6 24.4
2020-Aug-08 16:08 008 4 gusting 6 24.4
2020-Aug-08 16:02 341 3 gusting 6 24.4
2020-Aug-08 15:57 328 2 gusting 6 23.9
2020-Aug-08 15:52 015 1 gusting 6 23.9
2020-Aug-08 15:47 257 3 gusting 6 23.9
2020-Aug-08 15:41 002 1 gusting 6 23.3
2020-Aug-08 15:36 288 2 gusting 6 23.3
2020-Aug-08 15:31 330 1 gusting 5 22.8
2020-Aug-08 15:26 003 2 gusting 5 23.3
2020-Aug-08 15:21 236 1 gusting 5 23.9
2020-Aug-08 15:15 032 1 gusting 3 23.3
2020-Aug-08 15:10 259 0 gusting 3 22.8
2020-Aug-08 15:05 286 1 gusting 3 22.8
2020-Aug-08 15:00 281 1 gusting 3 22.8
2020-Aug-08 14:55 226 1 gusting 5 22.8
2020-Aug-08 14:50 323 2 gusting 5 22.2
2020-Aug-08 14:44 295 1 gusting 5 22.2
2020-Aug-08 14:39 300 1 gusting 5 22.2
2020-Aug-08 14:34 329 1 gusting 5 22.2
2020-Aug-08 14:29 284 0 gusting 5 21.7
2020-Aug-08 14:24 048 2 gusting 3 22.2
2020-Aug-08 14:19 002 1 gusting 3 21.7
2020-Aug-08 14:13 001 1 gusting 3 22.2
2020-Aug-08 14:08 271 0 gusting 3 21.7
2020-Aug-08 14:03 017 2 gusting 3 21.7
2020-Aug-08 13:58 009 2 gusting 3 21.7
2020-Aug-08 13:53 240 1 gusting 3 21.7
2020-Aug-08 13:47 350 3 gusting 3 21.7
2020-Aug-08 13:42 322 2 gusting 3 21.7
2020-Aug-08 13:37 331 1 gusting 3 21.7
2020-Aug-08 13:32 290 0 gusting 3 22.2
2020-Aug-08 13:27 258 0 gusting 3 21.7
2020-Aug-08 13:22 001 2 gusting 3 22.2
2020-Aug-08 13:17 023 2 gusting 3 22.2
2020-Aug-08 13:12 002 2 gusting 3 22.2
2020-Aug-08 13:06 241 1 gusting 3 22.2
2020-Aug-08 13:01 309 0 gusting 3 21.7
2020-Aug-08 12:56 272 0 gusting 5 20.6
2020-Aug-08 12:51 244 2 gusting 5 20.6
2020-Aug-08 12:46 289 2 gusting 2 20.6
2020-Aug-08 12:36 027 1 gusting 2 21.7
2020-Aug-08 12:31 214 21.7
2020-Aug-08 12:25 329 1 gusting 1 21.7
2020-Aug-08 12:20 239 0 gusting 2 21.1
2020-Aug-08 12:15 222 21.1
2020-Aug-08 12:10 246 0 gusting 1 21.1
2020-Aug-08 12:05 247 20.6
2020-Aug-08 11:59 321 0 gusting 2 20.0
2020-Aug-08 11:54 291 0 gusting 1 20.0
2020-Aug-08 11:49 275 0 gusting 1 20.0
2020-Aug-08 11:44 245 20.0
2020-Aug-08 11:39 286 19.4
2020-Aug-08 11:33 249 19.4
2020-Aug-08 11:28 311 1 gusting 1 19.4
2020-Aug-08 11:23 259 19.4
2020-Aug-08 11:18 298 0 gusting 1 19.4
2020-Aug-08 11:13 286 0 gusting 1 19.4
2020-Aug-08 11:08 273 0 gusting 1 18.9
2020-Aug-08 11:02 239 18.9
2020-Aug-08 10:57 243 18.3
2020-Aug-08 10:52 242 18.3
2020-Aug-08 10:47 250 18.3
2020-Aug-08 10:42 250 18.3
2020-Aug-08 10:37 250 18.3
2020-Aug-08 10:31 250 18.3
2020-Aug-08 10:26 250 18.3
2020-Aug-08 10:21 250 18.3
2020-Aug-08 10:16 276 18.3
2020-Aug-08 10:11 242 18.3
2020-Aug-08 10:05 276 18.3
2020-Aug-08 10:00 251 18.3
2020-Aug-08 09:55 271 18.3
2020-Aug-08 09:50 299 1 gusting 1 18.3
2020-Aug-08 09:45 276 0 gusting 0 18.3
2020-Aug-08 09:40 246 18.3
2020-Aug-08 09:34 291 0 gusting 2 18.3
2020-Aug-08 09:29 273 0 gusting 0 18.3
2020-Aug-08 09:24 249 18.3
2020-Aug-08 09:19 257 0 gusting 0 18.3
2020-Aug-08 09:14 237 18.3
2020-Aug-08 09:09 258 18.3
2020-Aug-08 09:04 258 18.3